GEFSSE_con_prob3kmehi_096.txt.gz
EHI
27 51 78 88 85 76 58 38 24 17 15 12 7 4 3 3 4 6 5 4 4 4 2 1 0 0 0 0 0 1 4 7 7 5 3 1 0 0 0 0 0 0 0
42 58 80 89 87 78 62 43 28 18 14 11 6 2 2 2 3 4 4 3 3 3 1 0 0 0 0 0 0 1 2 4 5 4 3 1 0 0 0 0 0 0 0
65 67 77 88 91 82 67 50 34 20 13 8 4 1 1 1 1 2 3 3 3 2 1 0 0 0 0 0 0 0 1 1 2 2 2 1 0 1 1 1 0 0 0
73 68 71 85 92 86 72 57 42 27 15 7 2 0 0 0 0 1 2 2 2 1 1 0 0 0 0 0 0 0 0 0 1 1 1 0 0 1 1 1 0 0 0
63 60 67 83 92 87 77 65 52 37 23 11 4 2 1 0 0 0 1 1 1 0 1 1 1 0 0 0 0 0 0 0 0 0 0 0 0 0 1 1 0 0 0
56 56 68 84 91 88 81 71 59 46 31 17 9 6 3 1 1 0 0 0 0 0 1 2 1 0 0 0 0 0 0 0 0 0 0 0 1 3 5 5 2 1 0
59 59 68 82 89 88 82 73 61 49 36 24 17 12 6 3 2 1 0 1 1 1 0 1 1 0 0 0 0 0 0 0 0 0 0 0 2 9 14 12 7 3 1
62 60 63 75 84 85 80 72 62 51 39 32 26 18 10 6 3 2 2 2 3 3 2 1 1 0 0 0 0 0 0 0 0 0 0 0 3 13 21 18 10 5 1
52 52 53 59 67 71 71 69 63 53 42 36 32 24 15 9 5 5 6 6 6 6 6 5 3 1 0 0 0 0 0 0 0 0 0 0 5 16 25 23 15 7 2
35 38 40 42 45 48 52 55 55 48 40 34 31 26 17 10 6 6 8 7 8 10 12 9 6 3 1 0 0 0 0 0 0 0 0 0 6 19 29 30 22 11 5
29 28 29 31 33 34 35 35 35 32 29 26 25 22 17 9 4 4 5 6 9 14 16 14 11 8 4 1 0 0 0 0 0 0 0 1 8 19 30 32 27 17 9
34 29 25 26 29 30 29 26 22 19 18 19 17 15 13 9 3 2 3 6 11 17 19 19 18 15 11 6 2 1 0 0 0 0 1 3 10 20 30 33 29 21 15
39 34 29 28 29 28 28 28 22 16 17 17 14 12 11 8 4 2 4 9 15 21 25 25 26 25 20 13 6 3 1 0 0 1 2 4 11 23 35 38 33 26 21
43 41 38 38 34 28 28 31 27 22 22 20 16 14 13 11 8 6 7 11 19 28 31 30 29 28 23 17 10 4 1 1 1 2 1 3 11 25 38 42 38 32 28
52 50 48 46 42 35 34 36 34 31 29 26 22 18 16 13 10 7 7 10 18 28 31 28 25 22 19 15 10 5 2 2 2 2 1 2 8 20 33 39 37 34 33
57 55 52 50 50 47 45 44 41 37 34 33 30 25 19 14 11 8 8 10 16 23 26 23 20 18 15 12 8 6 5 4 3 1 0 1 5 14 26 35 33 30 29
51 52 53 55 55 54 51 47 40 33 31 31 29 24 18 14 11 9 8 9 14 19 21 21 19 18 16 11 7 7 7 6 4 2 1 1 3 8 17 26 26 22 20
39 45 50 52 49 45 42 37 30 23 20 18 18 15 13 11 9 7 5 5 9 13 15 16 16 16 14 9 6 5 5 5 3 2 1 1 1 3 8 14 15 13 13
32 35 39 37 32 25 23 20 16 13 10 9 8 8 7 7 6 4 2 2 3 5 6 8 9 9 8 6 4 3 3 3 2 1 1 0 0 0 2 4 7 8 7
26 26 25 22 15 10 9 8 7 7 7 6 6 5 5 4 4 3 3 2 1 1 1 3 4 4 4 3 3 3 3 3 2 1 0 0 0 0 0 1 4 5 5
18 17 15 11 6 4 4 3 3 4 5 5 5 3 2 1 1 2 2 1 0 0 0 1 3 3 3 3 3 3 3 3 3 1 0 0 0 0 0 0 1 3 3
9 9 8 5 3 3 3 3 3 3 3 3 3 1 0 0 0 1 1 0 0 0 0 1 2 3 2 1 1 2 3 3 2 1 0 0 0 0 0 0 1 2 2
3 3 3 2 1 2 2 2 2 2 1 1 1 0 0 0 0 0 0 0 0 0 0 0 1 2 1 0 0 1 2 2 1 1 0 0 0 0 0 1 1 1 1
1 1 1 0 0 1 1 1 1 1 0 0 0 0 0 0 0 0 0 0 0 0 0 0 0 0 0 0 0 0 1 1 0 0 0 0 0 0 0 0 0 0 0
0 0 1 1 0 0 0 0 0 0 0 0 0 0 0 0 0 0 0 0 0 0 0 0 0 0 0 0 0 0 0 0 0 0 0 0 0 0 0 0 0 0 0
0 1 2 2 1 0 0 0 0 0 0 0 0 0 0 0 0 0 0 0 0 0 0 0 0 0 0 0 0 0 0 0 0 0 0 0 0 0 0 0 0 0 0

GEFSSE_con_prob3kmehi_102.txt.gz
EHI
17 27 43 57 71 81 85 86 85 84 83 81 75 65 53 39 26 16 9 4 1 0 0 0 0 0 0 0 0 0 0 0 0 0 0 0 0 0 0 0 0 0 0
32 37 49 62 74 82 85 85 83 80 79 76 70 61 49 36 24 15 9 4 1 0 0 0 0 0 0 0 0 0 0 0 0 0 0 0 0 0 0 0 0 0 0
52 49 53 66 77 83 84 81 77 73 69 64 58 50 41 32 22 12 7 3 1 0 0 0 0 0 0 0 0 0 0 0 0 0 0 0 0 0 0 0 0 0 0
63 54 53 66 78 81 80 75 69 63 57 50 43 38 34 30 22 13 5 2 0 0 0 0 0 0 0 0 0 0 0 0 0 0 0 0 0 0 0 0 0 0 0
63 55 55 67 76 78 76 69 63 57 49 42 37 33 31 30 24 15 7 2 0 0 0 0 0 0 0 0 0 0 0 0 0 0 0 0 0 0 0 0 0 0 0
60 55 58 71 77 77 74 67 60 55 48 40 34 30 28 27 21 15 8 3 0 0 0 0 0 0 0 0 0 0 0 0 0 0 0 0 0 0 0 0 0 0 0
63 59 64 75 80 77 73 68 61 54 46 38 30 24 21 18 13 11 8 3 1 0 0 0 0 0 0 0 0 0 0 0 0 0 0 0 0 0 0 0 0 0 0
69 65 66 71 73 71 70 67 61 52 44 35 26 19 15 10 7 7 6 4 1 1 1 0 0 0 1 1 0 0 0 0 0 0 0 0 0 0 0 0 1 1 0
66 63 60 60 58 58 61 61 57 50 43 33 24 16 13 9 6 6 6 4 2 1 1 0 0 1 2 2 1 0 0 0 0 0 0 0 1 1 1 0 1 2 2
50 49 49 50 50 49 50 51 50 46 40 31 23 17 14 11 8 6 6 5 3 1 0 0 0 1 3 4 2 0 0 0 0 0 0 0 1 2 1 1 1 2 3
34 34 35 40 44 44 42 42 42 41 37 29 22 19 16 12 9 8 7 6 3 1 0 0 0 1 2 4 4 2 1 0 0 0 0 0 1 1 1 1 1 1 2
22 22 24 28 35 36 34 32 33 35 33 27 21 20 19 15 12 12 11 7 3 0 0 0 0 0 1 3 5 4 2 0 0 0 0 0 1 1 0 1 1 1 1
19 20 20 22 25 27 26 24 24 25 24 21 18 19 20 16 14 14 14 10 5 2 1 0 0 0 2 4 5 3 2 0 0 0 0 1 2 2 2 1 1 2 2
21 21 21 21 20 20 20 19 18 16 15 14 13 15 17 15 12 12 12 9 5 4 3 1 0 1 4 6 5 3 1 0 0 0 0 1 2 3 3 3 2 2 2
19 18 17 17 17 16 13 12 13 12 10 9 9 11 14 12 8 6 6 4 2 2 2 1 1 2 4 5 5 3 1 0 0 0 1 1 2 4 5 5 4 2 1
17 14 12 12 12 10 6 5 6 7 9 8 7 8 9 8 6 3 2 1 0 0 0 0 1 3 4 5 5 2 1 0 0 0 1 2 3 5 6 6 5 2 0
18 15 12 9 7 4 2 1 2 4 5 5 4 3 3 4 3 3 2 1 0 0 0 1 2 3 4 6 5 3 2 2 1 0 0 1 2 4 4 5 5 3 1
14 13 10 7 4 1 0 0 0 1 2 2 1 0 0 1 1 1 2 1 0 0 0 1 2 3 4 4 4 3 2 3 3 1 0 1 1 2 2 3 4 3 2
8 8 7 4 2 1 0 0 0 0 0 0 0 0 0 0 0 0 1 1 0 0 0 1 1 2 2 2 2 1 1 2 2 1 1 1 1 1 1 2 2 2 2
5 5 4 2 0 0 0 0 0 0 0 0 0 0 0 0 0 0 0 0 0 0 0 0 0 1 1 1 1 0 0 1 1 0 0 0 0 0 0 0 1 1 1
3 3 3 2 1 0 0 0 0 0 0 0 0 0 0 0 0 0 0 0 0 0 0 0 0 0 0 0 0 0 0 0 0 0 0 0 0 0 0 0 1 2 2
2 2 2 2 1 0 0 0 0 0 0 0 0 0 0 0 0 0 0 0 0 0 0 0 0 0 0 0 0 0 0 0 0 0 0 0 0 0 1 1 1 2 3
1 0 1 1 1 0 0 0 0 0 0 0 0 0 0 0 0 0 0 0 0 0 0 0 0 0 0 0 0 0 0 0 0 0 0 0 0 0 1 1 1 1 2
0 0 0 0 0 0 0 0 0 0 0 0 0 0 0 0 0 0 0 0 0 0 0 0 0 0 0 0 0 0 0 0 0 0 0 0 0 0 1 1 0 0 1
0 0 0 0 0 0 0 0 0 0 0 0 0 0 0 0 0 0 0 0 0 0 0 0 0 0 0 0 0 0 0 0 0 0 0 0 0 0 0 0 0 0 0
0 0 0 0 0 0 0 0 0 0 0 0 0 0 0 0 0 0 0 0 0 0 0 0 0 0 0 0 0 0 0 0 0 0 0 0 0 0 0 1 1 1 0

GEFSSE_con_prob3kmehi_108.txt.gz
EHI
36 45 45 28 17 21 33 48 59 62 59 51 39 29 20 13 8 5 4 2 1 0 0 0 0 0 0 0 0 1 0 0 0 0 0 0 0 0 0 0 0 0 0
40 47 45 30 21 25 38 52 60 62 60 52 43 34 24 15 10 6 4 2 1 0 0 0 0 0 0 0 0 1 0 0 0 0 0 0 0 0 0 0 0 0 0
42 44 39 30 25 29 42 53 58 58 57 51 44 36 26 16 9 6 4 3 1 0 0 0 0 0 0 0 0 0 0 0 0 0 0 0 0 0 0 0 0 0 0
32 33 33 31 27 29 39 48 51 50 47 43 38 31 21 12 7 5 4 2 1 0 0 0 0 0 0 0 0 0 0 0 0 0 0 0 0 0 0 0 0 0 0
16 22 31 33 28 27 32 39 42 40 37 33 29 21 13 7 5 4 3 1 0 0 0 0 0 0 0 0 0 0 0 0 0 0 0 0 0 0 0 0 0 0 0
9 17 31 34 28 25 26 30 33 33 29 25 20 13 8 5 3 3 2 1 0 0 0 0 0 0 0 0 0 0 0 0 0 0 0 0 0 0 0 0 0 0 0
9 18 32 36 30 26 25 26 29 28 24 20 15 10 6 4 3 3 2 1 0 0 0 0 0 0 0 0 0 0 0 0 1 0 0 0 0 0 0 0 0 0 0
7 16 31 34 28 25 23 24 25 24 22 19 13 7 5 4 3 3 2 1 0 0 0 0 0 0 0 0 0 0 0 0 0 0 0 0 0 0 0 0 0 0 0
6 13 22 25 20 17 17 18 20 20 19 16 10 5 2 2 1 1 2 2 1 0 0 0 0 0 0 0 0 0 0 0 0 0 0 0 0 0 0 0 0 0 0
10 11 15 17 15 11 11 15 18 17 14 10 6 4 2 1 0 1 2 3 2 0 0 0 0 0 0 0 0 0 0 0 0 0 0 0 0 0 0 0 0 0 0
17 15 15 16 16 11 11 16 17 15 11 8 6 7 6 4 2 3 5 6 4 1 0 0 1 2 1 0 0 0 0 0 0 0 1 1 1 0 0 0 0 0 0
26 21 18 17 16 13 13 16 15 13 12 9 8 11 12 9 6 8 11 10 5 2 1 1 3 4 4 3 1 0 0 0 0 0 2 4 2 0 0 0 0 0 0
31 26 21 19 17 16 16 16 16 15 16 13 10 12 15 14 12 14 16 15 11 8 6 7 8 8 7 6 2 0 0 0 0 0 3 6 4 0 0 0 0 0 0
31 26 21 21 24 24 21 19 19 20 20 17 15 15 15 16 16 20 22 21 17 15 13 14 14 12 10 7 3 1 1 1 1 1 4 7 5 1 1 0 0 0 0
33 27 23 26 30 30 28 24 22 22 20 19 18 17 15 15 17 22 27 25 19 16 16 17 16 15 14 10 5 2 2 1 1 2 4 7 5 2 1 1 0 0 0
33 28 26 29 30 29 27 23 19 17 17 16 15 15 13 13 15 18 21 21 18 15 16 16 14 13 15 13 8 4 2 2 3 3 4 5 4 3 2 1 2 1 0
29 26 22 22 22 21 19 15 12 11 11 10 9 9 9 10 11 10 11 13 14 14 15 14 12 11 12 14 13 9 6 5 6 4 3 4 3 3 3 3 4 3 2
27 24 18 14 14 15 13 11 9 8 7 4 3 3 4 5 5 4 5 8 10 9 9 11 11 10 10 11 12 12 9 7 7 6 4 4 5 4 5 6 6 5 4
26 24 19 14 12 12 13 12 9 7 5 2 1 1 3 3 3 3 4 6 6 5 5 6 8 8 7 6 7 8 7 6 7 6 4 5 7 6 7 8 8 7 6
20 20 18 14 11 9 9 9 7 4 3 1 1 1 2 2 2 2 3 3 3 4 3 3 4 5 4 3 3 4 3 4 5 5 4 5 7 7 7 9 11 10 8
16 14 13 11 8 5 4 4 4 3 1 0 0 1 1 1 1 1 1 1 2 3 3 1 1 2 2 2 2 1 1 1 2 3 3 4 5 7 8 10 15 16 14
12 11 10 9 6 2 1 2 3 2 1 0 0 0 0 0 0 0 0 1 2 2 2 1 0 0 0 1 1 1 0 0 1 1 2 3 4 7 8 10 14 17 16
7 7 7 7 5 3 1 1 1 1 1 0 0 0 0 0 0 0 0 0 1 1 1 0 1 1 0 0 0 0 0 0 1 2 2 2 3 6 7 9 10 13 15
3 3 3 3 3 2 0 0 1 1 0 0 0 0 0 0 0 0 0 0 1 1 1 1 2 2 1 0 0 0 0 0 1 1 1 1 2 3 5 7 8 10 13
2 2 2 2 2 1 0 1 2 1 0 0 0 0 0 0 0 0 0 1 2 3 3 3 3 2 1 0 0 0 0 0 0 0 0 1 2 2 4 6 7 9 10
1 2 2 3 3 1 0 1 3 2 1 1 1 0 0 0 0 0 0 1 4 5 4 3 3 2 1 1 0 0 0 0 0 0 0 1 2 3 4 6 6 6 7

GEFSSE_con_prob3kmehi_114.txt.gz
EHI
72 61 49 33 16 6 1 0 0 0 0 0 0 0 0 0 0 0 0 0 0 0 0 0 0 0 0 0 0 0 0 0 0 0 0 0 0 0 0 0 0 0 0
70 58 47 34 18 9 3 1 0 0 0 0 0 0 0 0 0 0 0 0 0 0 0 0 0 0 0 0 0 0 0 0 0 0 0 0 0 0 0 0 0 0 1
59 45 36 31 21 13 7 3 1 0 0 1 1 1 1 1 1 0 0 0 0 0 0 0 0 0 0 0 0 0 0 0 0 0 0 0 0 0 0 1 0 0 1
40 32 29 28 22 16 12 7 3 2 2 4 4 4 4 4 3 1 1 0 0 0 0 0 0 0 0 0 0 0 0 0 1 2 2 1 0 0 0 0 0 0 1
29 30 32 30 23 17 14 11 9 6 6 6 6 6 5 5 4 2 1 0 0 0 0 0 0 0 0 0 0 0 0 0 2 4 3 2 0 0 0 0 0 0 0
36 37 36 31 24 18 14 13 12 10 7 6 5 4 3 2 1 1 1 0 0 0 0 0 0 0 0 0 0 0 0 1 3 4 3 3 2 2 2 1 0 0 0
56 48 40 35 26 18 14 11 11 9 7 5 3 2 1 0 0 1 1 0 0 0 0 0 0 0 0 0 0 0 0 2 4 4 6 8 6 4 3 2 0 0 0
73 57 42 35 27 19 14 10 8 8 7 6 3 1 0 0 1 2 1 0 0 0 0 0 0 0 0 0 0 0 0 2 4 4 9 14 11 6 5 2 0 0 0
74 56 36 28 23 17 14 11 9 9 9 7 4 1 0 0 1 2 2 0 0 0 1 1 0 0 0 0 0 0 0 2 3 3 9 17 17 11 6 3 1 0 0
66 50 33 25 20 15 14 15 13 12 11 8 4 1 0 0 1 2 3 3 2 1 1 1 1 1 1 1 1 1 1 1 2 3 12 23 25 17 9 4 1 0 0
68 54 41 33 23 15 17 22 20 16 13 9 6 5 5 5 3 3 6 11 10 5 2 1 2 2 3 3 3 3 2 1 1 5 20 34 32 21 12 6 3 1 1
74 64 53 45 32 23 27 32 27 24 24 19 15 15 15 13 8 8 17 25 23 14 6 4 5 5 3 4 7 7 4 1 1 8 28 44 43 29 16 9 5 3 2
71 67 62 54 44 39 42 40 33 35 38 31 27 27 26 23 16 18 28 34 32 24 16 14 14 8 4 6 10 9 5 1 2 12 34 52 52 39 22 12 7 4 4
66 68 69 64 57 56 56 49 41 43 42 37 35 34 35 32 26 26 33 34 33 30 27 27 24 14 8 8 11 10 6 3 3 14 36 51 52 43 30 18 10 6 5
67 69 70 69 64 62 62 57 49 44 39 36 36 39 39 37 32 30 33 32 29 30 33 33 27 18 13 11 10 11 9 6 6 14 31 44 46 43 37 25 14 8 7
66 64 64 64 62 59 57 55 48 39 33 33 35 37 36 34 31 29 30 30 26 26 30 30 24 19 15 11 10 10 10 8 8 14 25 35 39 40 39 31 21 15 13
63 59 55 54 54 53 48 43 35 28 25 27 30 30 27 26 24 23 22 21 18 18 22 23 20 18 14 9 9 10 9 9 9 11 18 28 32 32 31 31 31 29 25
59 57 52 46 46 44 37 30 23 18 18 19 20 19 17 15 14 13 12 11 9 10 13 14 14 13 10 7 8 10 9 8 8 9 13 21 26 25 24 28 37 41 38
50 52 50 45 39 33 25 20 15 13 12 12 12 12 9 6 5 4 6 6 5 6 7 8 8 8 8 7 8 8 8 7 7 8 10 14 17 20 20 23 35 42 40
42 44 46 45 37 27 20 16 12 9 8 9 10 8 5 3 2 3 5 6 6 6 6 6 7 9 10 9 8 7 7 7 6 7 9 10 10 12 14 20 30 36 35
35 37 40 40 33 25 21 17 11 7 6 6 7 7 4 2 2 5 6 5 4 5 5 6 7 9 9 9 8 7 6 5 4 6 8 9 7 8 11 16 26 32 31
28 29 34 35 29 24 20 14 10 7 4 4 6 7 4 1 1 3 5 4 3 4 4 4 5 6 6 7 7 5 3 3 3 4 5 5 5 7 10 14 22 28 27
23 28 33 34 28 19 13 9 8 7 5 5 9 11 8 4 3 4 5 6 5 5 4 4 3 4 4 6 6 4 2 1 2 3 2 2 2 3 6 10 16 21 22
21 29 37 35 26 16 9 6 6 5 5 7 11 14 13 10 8 7 8 10 10 7 6 4 3 3 4 4 4 3 2 1 1 2 2 1 1 1 2 4 9 15 17
19 26 34 35 27 18 12 8 7 5 4 6 10 13 15 14 11 9 10 12 12 9 6 4 4 3 3 3 3 3 2 1 1 1 1 1 1 1 1 1 3 8 12
18 22 30 36 30 19 14 11 8 6 4 5 8 11 13 14 13 11 11 13 13 9 5 4 4 3 3 3 3 3 2 1 1 1 0 0 0 1 1 1 2 4 8